| time (UTC) | temp F | wind direction | speed MPH | gust MPH | rain 1hr in | rain 24hr in | rain mn in | humidity % | barometer mb |
| 20260901220639 | 87 | 38 | 2.0 | 4.0 | 0.00 | 0.00 | 0.00 | 74 | |
| 20260901220139 | 87 | 41 | 2.0 | 6.0 | 0.00 | 0.00 | 0.00 | 74 | |
| 20260901215637 | 88 | 133 | 3.0 | 6.0 | 0.00 | 0.00 | 0.00 | 73 | |
| 20260901215132 | 89 | 92 | 3.0 | 6.0 | 0.00 | 0.00 | 0.00 | 72 | |
| 20260901214630 | 89 | 342 | 1.0 | 3.0 | 0.00 | 0.00 | 0.00 | 72 | |
| 20260901214125 | 89 | 44 | 4.0 | 7.0 | 0.00 | 0.00 | 0.00 | 72 | |
| 20260901213624 | 89 | 151 | 2.0 | 7.0 | 0.00 | 0.00 | 0.00 | 71 | |
| 20260901213119 | 88 | 339 | 1.0 | 7.0 | 0.00 | 0.00 | 0.00 | 71 | |
| 20260901212620 | 89 | 72 | 4.0 | 7.0 | 0.00 | 0.00 | 0.00 | 71 | |
| 20260901212116 | 89 | 71 | 2.0 | 8.0 | 0.00 | 0.00 | 0.00 | 70 | |
| 20260901211615 | 90 | 14 | 2.0 | 6.0 | 0.00 | 0.00 | 0.00 | 70 | |
| 20260901211113 | 90 | 72 | 6.0 | 13.0 | 0.00 | 0.00 | 0.00 | 69 | |
| 20260901210608 | 90 | 20 | 3.0 | 8.0 | 0.00 | 0.00 | 0.00 | 68 | |
| 20260901210104 | 90 | 340 | 1.0 | 6.0 | 0.00 | 0.00 | 0.00 | 69 | |
| 20260901205559 | 90 | 89 | 5.0 | 6.0 | 0.00 | 0.00 | 0.00 | 68 | |
| 20260901205059 | 90 | 286 | 2.0 | 9.0 | 0.00 | 0.00 | 0.00 | 68 | |
| 20260901204555 | 90 | 81 | 2.0 | 6.0 | 0.00 | 0.00 | 0.00 | 68 | |
| 20260901204050 | 91 | 319 | 2.0 | 6.0 | 0.00 | 0.00 | 0.00 | 67 | |
| 20260901203550 | 90 | 209 | 4.0 | 6.0 | 0.00 | 0.00 | 0.00 | 68 | |
| 20260901203046 | 90 | 11 | 2.0 | 4.0 | 0.00 | 0.00 | 0.00 | 69 | |
| 20260901202545 | 90 | 359 | 3.0 | 11.0 | 0.00 | 0.00 | 0.00 | 70 | |
| 20260901202042 | 90 | 28 | 2.0 | 7.0 | 0.00 | 0.00 | 0.00 | 68 | |
| 20260901201537 | 90 | 14 | 3.0 | 9.0 | 0.00 | 0.00 | 0.00 | 68 | |
| 20260901201036 | 91 | 30 | 3.0 | 10.0 | 0.00 | 0.00 | 0.00 | 66 | |
| 20260901200536 | 91 | 80 | 4.0 | 6.0 | 0.00 | 0.00 | 0.00 | 65 | |
| 20260901200031 | 91 | 4 | 2.0 | 6.0 | 0.00 | 0.00 | 0.00 | 66 | |
| 20260901195529 | 90 | 5 | 3.0 | 8.0 | 0.00 | 0.00 | 0.00 | 68 | |
| 20260901195029 | 91 | 58 | 3.0 | 9.0 | 0.00 | 0.00 | 0.00 | 66 | |
| 20260901194524 | 91 | 344 | 3.0 | 7.0 | 0.00 | 0.00 | 0.00 | 66 | |
| 20260901194019 | 90 | 139 | 4.0 | 7.0 | 0.00 | 0.00 | 0.00 | 69 | |
| 20260901193519 | 91 | 75 | 5.0 | 8.0 | 0.00 | 0.00 | 0.00 | 68 | |
| 20260901193019 | 91 | 54 | 5.0 | 8.0 | 0.00 | 0.00 | 0.00 | 68 | |
| 20260901192514 | 91 | 346 | 2.0 | 9.0 | 0.00 | 0.00 | 0.00 | 68 | |
| 20260901192010 | 90 | 347 | 1.0 | 6.0 | 0.00 | 0.00 | 0.00 | 69 | |
| 20260901191506 | 91 | 45 | 3.0 | 8.0 | 0.00 | 0.00 | 0.00 | 68 | |
| 20260901191001 | 91 | 93 | 5.0 | 9.0 | 0.00 | 0.00 | 0.00 | 66 | |
| 20260901190457 | 91 | 312 | 5.0 | 8.0 | 0.00 | 0.00 | 0.00 | 64 | |
| 20260901185954 | 91 | 307 | 2.0 | 8.0 | 0.00 | 0.00 | 0.00 | 63 | |
| 20260901185449 | 93 | 69 | 3.0 | 8.0 | 0.00 | 0.00 | 0.00 | 62 | |
| 20260901184948 | 92 | 27 | 3.0 | 6.0 | 0.00 | 0.00 | 0.00 | 62 | |
| 20260901184444 | 93 | 121 | 6.0 | 10.0 | 0.00 | 0.00 | 0.00 | 61 | |
| 20260901183939 | 93 | 85 | 4.0 | 6.0 | 0.00 | 0.00 | 0.00 | 61 | |
| 20260901183438 | 92 | 158 | 1.0 | 3.0 | 0.00 | 0.00 | 0.00 | 62 | |
| 20260901182934 | 93 | 16 | 2.0 | 9.0 | 0.00 | 0.00 | 0.00 | 61 | |
| 20260901182430 | 93 | 250 | 4.0 | 9.0 | 0.00 | 0.00 | 0.00 | 60 | |
| 20260901181919 | 93 | 342 | 2.0 | 4.0 | 0.00 | 0.00 | 0.00 | 61 | |
| 20260901181414 | 93 | 181 | 2.0 | 4.0 | 0.00 | 0.00 | 0.00 | 62 | |
| 20260901180913 | 93 | 212 | 4.0 | 7.0 | 0.00 | 0.00 | 0.00 | 61 | |
| 20260901180413 | 93 | 129 | 3.0 | 6.0 | 0.00 | 0.00 | 0.00 | 62 | |
| 20260901175911 | 92 | 333 | 5.0 | 7.0 | 0.00 | 0.00 | 0.00 | 63 | |
| 20260901175406 | 93 | 345 | 2.0 | 6.0 | 0.00 | 0.00 | 0.00 | 61 | |
| 20260901174901 | 92 | 350 | 2.0 | 4.0 | 0.00 | 0.00 | 0.00 | 62 | |
| 20260901174357 | 92 | 73 | 4.0 | 7.0 | 0.00 | 0.00 | 0.00 | 62 | |
| 20260901173852 | 93 | 106 | 2.0 | 6.0 | 0.00 | 0.00 | 0.00 | 61 | |
| 20260901173347 | 93 | 182 | 4.0 | 4.0 | 0.00 | 0.00 | 0.00 | 62 | |
| 20260901172844 | 93 | 47 | 4.0 | 6.0 | 0.00 | 0.00 | 0.00 | 62 | |
| 20260901172343 | 93 | 185 | 4.0 | 8.0 | 0.00 | 0.00 | 0.00 | 61 | |
| 20260901171841 | 93 | 169 | 3.0 | 6.0 | 0.00 | 0.00 | 0.00 | 61 | |
| 20260901171340 | 94 | 337 | 7.0 | 11.0 | 0.00 | 0.00 | 0.00 | 61 | |
| 20260901170839 | 93 | 237 | 3.0 | 6.0 | 0.00 | 0.00 | 0.00 | 60 | |
| 20260901170334 | 94 | 94 | 4.0 | 10.0 | 0.00 | 0.00 | 0.00 | 60 | |
| 20260901165833 | 93 | 357 | 3.0 | 7.0 | 0.00 | 0.00 | 0.00 | 62 | |
| 20260901165327 | 93 | 315 | 5.0 | 9.0 | 0.00 | 0.00 | 0.00 | 62 | |
| 20260901164824 | 93 | 334 | 6.0 | 10.0 | 0.00 | 0.00 | 0.00 | 60 | |
| 20260901164319 | 93 | 70 | 2.0 | 3.0 | 0.00 | 0.00 | 0.00 | 61 | |
| 20260901163814 | 93 | 306 | 3.0 | 8.0 | 0.00 | 0.00 | 0.00 | 62 | |
| 20260901163314 | 93 | 30 | 3.0 | 9.0 | 0.00 | 0.00 | 0.00 | 62 | |
| 20260901162809 | 93 | 44 | 4.0 | 7.0 | 0.00 | 0.00 | 0.00 | 62 | |
| 20260901162308 | 93 | 246 | 4.0 | 6.0 | 0.00 | 0.00 | 0.00 | 63 | |
| 20260901161808 | 93 | 238 | 5.0 | 7.0 | 0.00 | 0.00 | 0.00 | 62 | |
| 20260901161302 | 93 | 32 | 2.0 | 6.0 | 0.00 | 0.00 | 0.00 | 63 | |
| 20260901160757 | 93 | 45 | 3.0 | 10.0 | 0.00 | 0.00 | 0.00 | 63 | |
| 20260901160254 | 93 | 231 | 5.0 | 8.0 | 0.00 | 0.00 | 0.00 | 62 | |
| 20260901155753 | 93 | 194 | 2.0 | 8.0 | 0.00 | 0.00 | 0.00 | 62 | |
| 20260901155248 | 92 | 24 | 1.0 | 8.0 | 0.00 | 0.00 | 0.00 | 63 | |
| 20260901154743 | 93 | 40 | 4.0 | 10.0 | 0.00 | 0.00 | 0.00 | 62 | |
| 20260901154238 | 93 | 84 | 4.0 | 9.0 | 0.00 | 0.00 | 0.00 | 61 | |
| 20260901153733 | 93 | 58 | 4.0 | 9.0 | 0.00 | 0.00 | 0.00 | 62 | |
| 20260901153232 | 93 | 230 | 3.0 | 6.0 | 0.00 | 0.00 | 0.00 | 63 | |
| 20260901152732 | 92 | 12 | 1.0 | 7.0 | 0.00 | 0.00 | 0.00 | 63 | |
| 20260901152231 | 92 | 293 | 3.0 | 7.0 | 0.00 | 0.00 | 0.00 | 64 | |
| 20260901151727 | 93 | 110 | 2.0 | 8.0 | 0.00 | 0.00 | 0.00 | 63 | |
| 20260901151226 | 92 | 347 | 1.0 | 6.0 | 0.00 | 0.00 | 0.00 | 64 | |
| 20260901150721 | 91 | 132 | 3.0 | 8.0 | 0.00 | 0.00 | 0.00 | 63 | |
| 20260901150219 | 91 | 6 | 3.0 | 4.0 | 0.00 | 0.00 | 0.00 | 64 | |
| 20260901145717 | 91 | 103 | 2.0 | 9.0 | 0.00 | 0.00 | 0.00 | 65 | |
| 20260901145217 | 90 | 77 | 6.0 | 11.0 | 0.00 | 0.00 | 0.00 | 65 | |
| 20260901144712 | 90 | 350 | 2.0 | 8.0 | 0.00 | 0.00 | 0.00 | 67 | |
| 20260901144213 | 91 | 200 | 4.0 | 6.0 | 0.00 | 0.00 | 0.00 | 66 | |
| 20260901143708 | 91 | 265 | 2.0 | 9.0 | 0.00 | 0.00 | 0.00 | 65 | |
| 20260901143204 | 91 | 57 | 5.0 | 8.0 | 0.00 | 0.00 | 0.00 | 64 | |
| 20260901142700 | 92 | 246 | 3.0 | 8.0 | 0.00 | 0.00 | 0.00 | 63 | |
| 20260901142159 | 92 | 220 | 3.0 | 6.0 | 0.00 | 0.00 | 0.00 | 63 | |
| 20260901141654 | 91 | 6 | 4.0 | 6.0 | 0.00 | 0.00 | 0.00 | 64 | |
| 20260901141154 | 91 | 93 | 4.0 | 6.0 | 0.00 | 0.00 | 0.00 | 66 | |
| 20260901140653 | 90 | 220 | 2.0 | 4.0 | 0.00 | 0.00 | 0.00 | 67 | |
| 20260901140152 | 90 | 23 | 2.0 | 7.0 | 0.00 | 0.00 | 0.00 | 68 | |
| 20260901135647 | 90 | 171 | 4.0 | 7.0 | 0.00 | 0.00 | 0.00 | 68 | |
| 20260901135142 | 90 | 70 | 1.0 | 3.0 | 0.00 | 0.00 | 0.00 | 69 | |
| 20260901134638 | 89 | 55 | 4.0 | 8.0 | 0.00 | 0.00 | 0.00 | 68 | |
| 20260901134128 | 89 | 354 | 2.0 | 7.0 | 0.00 | 0.00 | 0.00 | 70 | |
| 20260901133627 | 89 | 224 | 4.0 | 8.0 | 0.00 | 0.00 | 0.00 | 70 | |
| 20260901133125 | 89 | 231 | 4.0 | 6.0 | 0.00 | 0.00 | 0.00 | 71 | |
| 20260901132620 | 89 | 168 | 5.0 | 9.0 | 0.00 | 0.00 | 0.00 | 71 | |
| 20260901132120 | 90 | 13 | 3.0 | 8.0 | 0.00 | 0.00 | 0.00 | 70 | |
| 20260901131619 | 89 | 265 | 2.0 | 3.0 | 0.00 | 0.00 | 0.00 | 71 | |
| 20260901131114 | 89 | 105 | 5.0 | 9.0 | 0.00 | 0.00 | 0.00 | 70 | |
| 20260901130610 | 89 | 294 | 4.0 | 6.0 | 0.00 | 0.00 | 0.00 | 70 | |
| 20260901130108 | 88 | 211 | 3.0 | 4.0 | 0.00 | 0.00 | 0.00 | 71 | |
| 20260901125606 | 87 | 237 | 2.0 | 7.0 | 0.00 | 0.00 | 0.00 | 73 | |
| 20260901125102 | 87 | 52 | 4.0 | 7.0 | 0.00 | 0.00 | 0.00 | 73 | |
| 20260901124601 | 87 | 342 | 4.0 | 7.0 | 0.00 | 0.00 | 0.00 | 74 | |
| 20260901124056 | 87 | 240 | 2.0 | 6.0 | 0.00 | 0.00 | 0.00 | 74 | |
| 20260901123545 | 87 | 95 | 3.0 | 6.0 | 0.00 | 0.00 | 0.00 | 74 | |
| 20260901123039 | 86 | 330 | 2.0 | 4.0 | 0.00 | 0.00 | 0.00 | 75 | |
| 20260901122538 | 86 | 205 | 5.0 | 10.0 | 0.00 | 0.00 | 0.00 | 76 | |
| 20260901122037 | 86 | 100 | 5.0 | 7.0 | 0.00 | 0.00 | 0.00 | 77 | |
| 20260901121532 | 85 | 256 | 2.0 | 7.0 | 0.00 | 0.00 | 0.00 | 78 | |
| 20260901121027 | 85 | 356 | 2.0 | 7.0 | 0.00 | 0.00 | 0.00 | 78 | |
| 20260901120527 | 86 | 357 | 2.0 | 4.0 | 0.00 | 0.00 | 0.00 | 79 | |
| 20260901120023 | 86 | 346 | 2.0 | 3.0 | 0.00 | 0.00 | 0.00 | 79 | |
| 20260901115517 | 85 | 20 | 1.0 | 3.0 | 0.00 | 0.00 | 0.00 | 80 | |
| 20260901115015 | 85 | 164 | 2.0 | 6.0 | 0.00 | 0.00 | 0.00 | 80 | |
| 20260901114510 | 85 | 276 | 3.0 | 8.0 | 0.00 | 0.00 | 0.00 | 80 | |
| 20260901114008 | 84 | 328 | 2.0 | 4.0 | 0.00 | 0.00 | 0.00 | 80 | |
| 20260901113507 | 84 | 34 | 3.0 | 9.0 | 0.00 | 0.00 | 0.00 | 80 | |
| 20260901113003 | 84 | 23 | 1.0 | 2.0 | 0.00 | 0.00 | 0.00 | 81 | |
| 20260901112458 | 84 | 84 | 2.0 | 4.0 | 0.00 | 0.00 | 0.00 | 81 | |
| 20260901111953 | 84 | 152 | 1.0 | 3.0 | 0.00 | 0.00 | 0.00 | 82 | |
| 20260901111451 | 84 | 208 | 4.0 | 6.0 | 0.00 | 0.00 | 0.00 | 81 | |
| 20260901110949 | 84 | 38 | 2.0 | 6.0 | 0.00 | 0.00 | 0.00 | 81 | |
| 20260901110445 | 84 | 13 | 2.0 | 4.0 | 0.00 | 0.00 | 0.00 | 81 | |
| 20260901105942 | 84 | 345 | 2.0 | 6.0 | 0.00 | 0.00 | 0.00 | 81 | |
| 20260901105437 | 84 | 352 | 2.0 | 4.0 | 0.00 | 0.00 | 0.00 | 82 | |
| 20260901104932 | 84 | 22 | 1.0 | 2.0 | 0.00 | 0.00 | 0.00 | 82 | |
| 20260901104428 | 84 | 4 | 3.0 | 7.0 | 0.00 | 0.00 | 0.00 | 82 | |
| 20260901103923 | 84 | 18 | 3.0 | 7.0 | 0.00 | 0.00 | 0.00 | 83 | |
| 20260901103423 | 84 | 339 | 2.0 | 4.0 | 0.00 | 0.00 | 0.00 | 83 | |
| 20260901102918 | 83 | 74 | 2.0 | 6.0 | 0.00 | 0.00 | 0.00 | 83 | |
| 20260901102418 | 83 | 37 | 1.0 | 4.0 | 0.00 | 0.00 | 0.00 | 83 | |
| 20260901101913 | 83 | 23 | 1.0 | 6.0 | 0.00 | 0.00 | 0.00 | 83 | |
| 20260901101408 | 83 | 357 | 2.0 | 4.0 | 0.00 | 0.00 | 0.00 | 83 | |
| 20260901100902 | 83 | 8 | 2.0 | 4.0 | 0.00 | 0.00 | 0.00 | 84 | |
| 20260901100357 | 83 | 89 | 1.0 | 3.0 | 0.00 | 0.00 | 0.00 | 84 | |
| 20260901095850 | 83 | 10 | 1.0 | 6.0 | 0.00 | 0.00 | 0.00 | 84 | |
| 20260901095342 | 83 | 350 | 0.0 | 2.0 | 0.00 | 0.00 | 0.00 | 84 | |
| 20260901094836 | 83 | 43 | 2.0 | 3.0 | 0.00 | 0.00 | 0.00 | 84 | |
| 20260901094331 | 83 | 355 | 0.0 | 4.0 | 0.00 | 0.00 | 0.00 | 84 | |
| 20260901093826 | 83 | 321 | 1.0 | 4.0 | 0.00 | 0.00 | 0.00 | 83 | |
| 20260901093325 | 83 | 345 | 2.0 | 3.0 | 0.00 | 0.00 | 0.00 | 83 | |
| 20260901092821 | 83 | 319 | 3.0 | 4.0 | 0.00 | 0.00 | 0.00 | 83 | |
| 20260901092317 | 83 | 308 | 2.0 | 6.0 | 0.00 | 0.00 | 0.00 | 83 | |
| 20260901091812 | 83 | 32 | 1.0 | 3.0 | 0.00 | 0.00 | 0.00 | 83 | |
| 20260901091307 | 83 | 120 | 2.0 | 6.0 | 0.00 | 0.00 | 0.00 | 83 | |
| 20260901090802 | 83 | 270 | 2.0 | 8.0 | 0.00 | 0.00 | 0.00 | 83 | |
| 20260901090303 | 83 | 59 | 2.0 | 4.0 | 0.00 | 0.00 | 0.00 | 83 | |
| 20260901085758 | 83 | 210 | 2.0 | 3.0 | 0.00 | 0.00 | 0.00 | 83 | |
| 20260901085253 | 83 | 251 | 3.0 | 6.0 | 0.00 | 0.00 | 0.00 | 83 | |
| 20260901084750 | 83 | 355 | 2.0 | 3.0 | 0.00 | 0.00 | 0.00 | 83 | |
| 20260901084246 | 83 | 332 | 1.0 | 3.0 | 0.00 | 0.00 | 0.00 | 83 | |
| 20260901083746 | 83 | 9 | 1.0 | 3.0 | 0.00 | 0.00 | 0.00 | 83 | |
| 20260901083245 | 83 | 2 | 0.0 | 3.0 | 0.00 | 0.00 | 0.00 | 83 | |
| 20260901082743 | 83 | 335 | 1.0 | 3.0 | 0.00 | 0.00 | 0.00 | 83 | |
| 20260901082239 | 83 | 93 | 1.0 | 4.0 | 0.00 | 0.00 | 0.00 | 83 | |
| 20260901081734 | 83 | 327 | 1.0 | 3.0 | 0.00 | 0.00 | 0.00 | 82 | |
| 20260901081234 | 83 | 50 | 2.0 | 3.0 | 0.00 | 0.00 | 0.00 | 82 | |
| 20260901080729 | 83 | 299 | 1.0 | 4.0 | 0.00 | 0.00 | 0.00 | 82 | |
| 20260901080228 | 83 | 86 | 3.0 | 6.0 | 0.00 | 0.00 | 0.00 | 82 | |
| 20260901075729 | 83 | 289 | 1.0 | 4.0 | 0.00 | 0.00 | 0.00 | 82 | |
| 20260901075224 | 83 | 352 | 2.0 | 4.0 | 0.00 | 0.00 | 0.00 | 82 | |
| 20260901074723 | 83 | 337 | 1.0 | 3.0 | 0.00 | 0.00 | 0.00 | 82 | |
| 20260901074219 | 83 | 313 | 1.0 | 2.0 | 0.00 | 0.00 | 0.00 | 82 | |
| 20260901073715 | 83 | 348 | 2.0 | 7.0 | 0.00 | 0.00 | 0.00 | 83 | |
| 20260901073211 | 83 | 305 | 1.0 | 3.0 | 0.00 | 0.00 | 0.00 | 83 | |
| 20260901072706 | 83 | 357 | 0.0 | 4.0 | 0.00 | 0.00 | 0.00 | 83 | |
| 20260901072200 | 83 | 346 | 0.0 | 3.0 | 0.00 | 0.00 | 0.00 | 83 | |
| 20260901071654 | 83 | 24 | 2.0 | 2.0 | 0.00 | 0.00 | 0.00 | 83 | |
| 20260901071149 | 83 | 340 | 1.0 | 3.0 | 0.00 | 0.00 | 0.00 | 83 | |
| 20260901070643 | 83 | 31 | 3.0 | 3.0 | 0.00 | 0.00 | 0.00 | 82 | |
| 20260901070139 | 83 | 5 | 3.0 | 4.0 | 0.00 | 0.00 | 0.00 | 82 | |
| 20260901065637 | 83 | 56 | 2.0 | 3.0 | 0.00 | 0.00 | 0.00 | 82 | |
| 20260901065133 | 83 | 299 | 2.0 | 4.0 | 0.00 | 0.00 | 0.00 | 82 | |
| 20260901064630 | 83 | 23 | 0.0 | 6.0 | 0.00 | 0.00 | 0.00 | 83 | |
| 20260901064126 | 83 | 302 | 2.0 | 3.0 | 0.00 | 0.00 | 0.00 | 83 | |
| 20260901063623 | 83 | 52 | 3.0 | 7.0 | 0.00 | 0.00 | 0.00 | 83 | |
| 20260901063118 | 83 | 11 | 2.0 | 3.0 | 0.00 | 0.00 | 0.00 | 83 | |
| 20260901062614 | 83 | 346 | 1.0 | 3.0 | 0.00 | 0.00 | 0.00 | 82 | |
| 20260901062109 | 83 | 306 | 2.0 | 4.0 | 0.00 | 0.00 | 0.00 | 82 | |
| 20260901061605 | 83 | 162 | 1.0 | 4.0 | 0.00 | 0.00 | 0.00 | 82 | |
| 20260901061100 | 84 | 112 | 1.0 | 3.0 | 0.00 | 0.00 | 0.00 | 82 | |
| 20260901060559 | 84 | 345 | 3.0 | 3.0 | 0.00 | 0.00 | 0.00 | 82 | |
| 20260901060055 | 84 | 331 | 2.0 | 6.0 | 0.00 | 0.00 | 0.00 | 82 | |
| 20260901055550 | 84 | 23 | 4.0 | 7.0 | 0.00 | 0.00 | 0.00 | 82 | |
| 20260901055047 | 84 | 15 | 2.0 | 7.0 | 0.00 | 0.00 | 0.00 | 82 | |
| 20260901054543 | 84 | 182 | 1.0 | 6.0 | 0.00 | 0.00 | 0.00 | 82 | |
| 20260901054039 | 84 | 123 | 4.0 | 8.0 | 0.00 | 0.00 | 0.00 | 82 | |
| 20260901053535 | 84 | 124 | 4.0 | 7.0 | 0.00 | 0.00 | 0.00 | 82 | |
| 20260901053031 | 84 | 214 | 3.0 | 6.0 | 0.00 | 0.00 | 0.00 | 82 | |
| 20260901052526 | 84 | 166 | 3.0 | 6.0 | 0.00 | 0.00 | 0.00 | 82 | |
| 20260901052026 | 84 | 16 | 2.0 | 9.0 | 0.00 | 0.00 | 0.00 | 82 | |
| 20260901051521 | 84 | 333 | 2.0 | 3.0 | 0.00 | 0.00 | 0.00 | 82 | |
| 20260901051019 | 84 | 26 | 1.0 | 4.0 | 0.00 | 0.00 | 0.00 | 82 | |
| 20260901050515 | 84 | 17 | 2.0 | 6.0 | 0.00 | 0.00 | 0.00 | 82 | |
| 20260901050010 | 84 | 337 | 4.0 | 9.0 | 0.00 | 0.00 | 0.00 | 82 | |
| 20260901045505 | 84 | 321 | 1.0 | 3.0 | 0.00 | 0.00 | 0.00 | 82 | |
| 20260901044959 | 84 | 78 | 1.0 | 6.0 | 0.00 | 0.00 | 0.00 | 82 | |
| 20260901044455 | 84 | 176 | 3.0 | 6.0 | 0.00 | 0.00 | 0.00 | 82 | |
| 20260901043951 | 84 | 107 | 1.0 | 4.0 | 0.00 | 0.00 | 0.00 | 81 | |
| 20260901043448 | 84 | 345 | 2.0 | 9.0 | 0.00 | 0.00 | 0.00 | 81 | |
| 20260901042947 | 84 | 41 | 1.0 | 3.0 | 0.00 | 0.00 | 0.00 | 80 | |
| 20260901042447 | 84 | 281 | 3.0 | 6.0 | 0.00 | 0.00 | 0.00 | 80 | |
| 20260901041942 | 84 | 354 | 1.0 | 6.0 | 0.00 | 0.00 | 0.00 | 80 | |
| 20260901041437 | 84 | 355 | 1.0 | 3.0 | 0.00 | 0.00 | 0.00 | 80 | |
| 20260901040937 | 84 | 240 | 3.0 | 7.0 | 0.00 | 0.00 | 0.00 | 80 | |
| 20260901040432 | 84 | 351 | 2.0 | 7.0 | 0.00 | 0.00 | 0.00 | 81 | |
| 20260901035931 | 84 | 35 | 2.0 | 6.0 | 0.00 | 0.00 | 0.00 | 81 | |
| 20260901035430 | 84 | 15 | 3.0 | 7.0 | 0.00 | 0.00 | 0.00 | 81 | |
| 20260901034928 | 84 | 278 | 1.0 | 3.0 | 0.00 | 0.00 | 0.00 | 81 | |
| 20260901034423 | 84 | 33 | 2.0 | 6.0 | 0.00 | 0.00 | 0.00 | 81 | |
| 20260901033918 | 84 | 8 | 0.0 | 7.0 | 0.00 | 0.00 | 0.00 | 81 | |
| 20260901033417 | 84 | 9 | 2.0 | 10.0 | 0.00 | 0.00 | 0.00 | 81 | |
| 20260901032916 | 84 | 0 | 1.0 | 6.0 | 0.00 | 0.00 | 0.00 | 81 | |
| 20260901032416 | 84 | 306 | 1.0 | 8.0 | 0.00 | 0.00 | 0.00 | 81 | |
| 20260901031911 | 84 | 7 | 2.0 | 3.0 | 0.00 | 0.00 | 0.00 | 81 | |
| 20260901031407 | 84 | 322 | 1.0 | 3.0 | 0.00 | 0.00 | 0.00 | 81 | |
| 20260901030906 | 84 | 113 | 4.0 | 8.0 | 0.00 | 0.00 | 0.00 | 81 | |
| 20260901030402 | 84 | 334 | 3.0 | 4.0 | 0.00 | 0.00 | 0.00 | 81 | |
| 20260901025900 | 84 | 347 | 3.0 | 7.0 | 0.00 | 0.00 | 0.00 | 81 | |
| 20260901025356 | 84 | 219 | 4.0 | 6.0 | 0.00 | 0.00 | 0.00 | 81 | |
| 20260901024850 | 84 | 24 | 2.0 | 7.0 | 0.00 | 0.00 | 0.00 | 81 | |
| 20260901024349 | 85 | 342 | 1.0 | 6.0 | 0.00 | 0.00 | 0.00 | 81 | |
| 20260901023848 | 84 | 346 | 2.0 | 3.0 | 0.00 | 0.00 | 0.00 | 81 | |
| 20260901023343 | 84 | 69 | 2.0 | 6.0 | 0.00 | 0.00 | 0.00 | 81 | |
| 20260901022838 | 84 | 58 | 4.0 | 7.0 | 0.00 | 0.00 | 0.00 | 81 | |
| 20260901022334 | 84 | 60 | 3.0 | 6.0 | 0.00 | 0.00 | 0.00 | 81 | |
| 20260901021829 | 85 | 259 | 2.0 | 4.0 | 0.00 | 0.00 | 0.00 | 81 | |
| 20260901021325 | 85 | 305 | 2.0 | 6.0 | 0.00 | 0.00 | 0.00 | 81 | |
| 20260901020819 | 85 | 89 | 2.0 | 7.0 | 0.00 | 0.00 | 0.00 | 81 | |
| 20260901020315 | 85 | 297 | 2.0 | 6.0 | 0.00 | 0.00 | 0.00 | 81 | |
| 20260901015809 | 85 | 258 | 2.0 | 10.0 | 0.00 | 0.00 | 0.00 | 80 | |
| 20260901015306 | 85 | 270 | 2.0 | 4.0 | 0.00 | 0.00 | 0.00 | 80 | |
| 20260901014804 | 85 | 199 | 3.0 | 6.0 | 0.00 | 0.00 | 0.00 | 80 | |
| 20260901014300 | 85 | 288 | 2.0 | 8.0 | 0.00 | 0.00 | 0.00 | 79 | |
| 20260901013756 | 85 | 55 | 3.0 | 6.0 | 0.00 | 0.00 | 0.00 | 79 | |
| 20260901013252 | 85 | 344 | 1.0 | 7.0 | 0.00 | 0.00 | 0.00 | 80 | |
| 20260901012747 | 85 | 40 | 2.0 | 6.0 | 0.00 | 0.00 | 0.00 | 79 | |
| 20260901012247 | 85 | 119 | 2.0 | 7.0 | 0.00 | 0.00 | 0.00 | 79 | |
| 20260901011743 | 85 | 37 | 3.0 | 4.0 | 0.00 | 0.00 | 0.00 | 79 | |
| 20260901011238 | 85 | 14 | 2.0 | 15.0 | 0.00 | 0.00 | 0.00 | 79 | |
| 20260901010731 | 85 | 352 | 1.0 | 6.0 | 0.00 | 0.00 | 0.00 | 79 | |
| 20260901010227 | 85 | 342 | 1.0 | 7.0 | 0.00 | 0.00 | 0.00 | 79 | |
| 20260901005725 | 85 | 23 | 3.0 | 6.0 | 0.00 | 0.00 | 0.00 | 79 | |
| 20260901005221 | 85 | 343 | 1.0 | 4.0 | 0.00 | 0.00 | 0.00 | 79 | |
| 20260901004720 | 85 | 40 | 6.0 | 13.0 | 0.00 | 0.00 | 0.00 | 79 | |
| 20260901004215 | 85 | 27 | 2.0 | 4.0 | 0.00 | 0.00 | 0.00 | 79 | |
| 20260901003715 | 85 | 158 | 3.0 | 4.0 | 0.00 | 0.00 | 0.00 | 79 | |
| 20260901003210 | 85 | 22 | 2.0 | 4.0 | 0.00 | 0.00 | 0.00 | 79 | |
| 20260901002708 | 85 | 0 | 4.0 | 6.0 | 0.00 | 0.00 | 0.00 | 79 | |
| 20260901002203 | 85 | 338 | 5.0 | 7.0 | 0.00 | 0.00 | 0.00 | 79 | |
| 20260901001659 | 85 | 37 | 2.0 | 7.0 | 0.00 | 0.00 | 0.00 | 79 | |
| 20260901001154 | 85 | 89 | 3.0 | 4.0 | 0.00 | 0.00 | 0.00 | 79 | |
| 20260901000649 | 85 | 312 | 3.0 | 4.0 | 0.00 | 0.00 | 0.00 | 79 | |
| 20260901000145 | 85 | 64 | 3.0 | 11.0 | 0.00 | 0.00 | 0.00 | 79 | |
| 20260831235638 | 85 | 343 | 3.0 | 8.0 | 0.00 | 0.00 | 0.00 | 79 | |
| 20260831235134 | 85 | 98 | 4.0 | 4.0 | 0.00 | 0.00 | 0.00 | 79 | |
| 20260831234632 | 85 | 14 | 2.0 | 4.0 | 0.00 | 0.00 | 0.00 | 79 | |
| 20260831234128 | 85 | 257 | 3.0 | 8.0 | 0.00 | 0.00 | 0.00 | 78 | |
| 20260831233623 | 85 | 57 | 3.0 | 6.0 | 0.00 | 0.00 | 0.00 | 78 | |
| 20260831233119 | 85 | 48 | 4.0 | 9.0 | 0.00 | 0.00 | 0.00 | 78 | |
| 20260831232614 | 86 | 337 | 4.0 | 9.0 | 0.00 | 0.00 | 0.00 | 78 | |
| 20260831232110 | 86 | 344 | 2.0 | 4.0 | 0.00 | 0.00 | 0.00 | 78 | |
| 20260831231606 | 86 | 286 | 4.0 | 8.0 | 0.00 | 0.00 | 0.00 | 77 | |
| 20260831231102 | 86 | 1 | 3.0 | 10.0 | 0.00 | 0.00 | 0.00 | 76 | |
| 20260831230557 | 86 | 352 | 2.0 | 7.0 | 0.00 | 0.00 | 0.00 | 76 | |
| 20260831230058 | 86 | 358 | 3.0 | 7.0 | 0.00 | 0.00 | 0.00 | 76 | |
| 20260831225553 | 86 | 4 | 1.0 | 6.0 | 0.00 | 0.00 | 0.00 | 76 | |
| 20260831225053 | 86 | 344 | 4.0 | 8.0 | 0.00 | 0.00 | 0.00 | 75 | |
| 20260831224548 | 86 | 14 | 2.0 | 7.0 | 0.00 | 0.00 | 0.00 | 75 | |
| 20260831224043 | 87 | 165 | 6.0 | 9.0 | 0.00 | 0.00 | 0.00 | 75 | |
| 20260831223538 | 87 | 47 | 2.0 | 4.0 | 0.00 | 0.00 | 0.00 | 74 | |
| 20260831223035 | 87 | 37 | 3.0 | 6.0 | 0.00 | 0.00 | 0.00 | 73 | |
| 20260831222531 | 87 | 23 | 3.0 | 11.0 | 0.00 | 0.00 | 0.00 | 73 | |
| 20260831222030 | 87 | 129 | 2.0 | 6.0 | 0.00 | 0.00 | 0.00 | 72 | |
| 20260831221526 | 87 | 46 | 3.0 | 8.0 | 0.00 | 0.00 | 0.00 | 71 |